"Pseudo-MPEC" for ZT11861

Created 2018 Oct 15 1:18:12 UT using Find_Orb

Click here for an explanation of pseudo-MPECs

 
 Astrometry: 
     ZT11861  C2018 10 04xTAstrometry\F/J3(A+Kp\wi]\:USj8#HSk_Y7g=7PgKY.V3ZjpF52
     ZT11861  C2018 10 05.24664 00 27 32.17 +15 51 41.5          19.8 GVNEOCP703
     ZT11861  C2018 10 05.25734 00 27 38.20 +15 53 39.8          19.7 GVNEOCP703
     ZT11861  C2018 10 05.26268 00 27 41.24 +15 54 40.1          19.8 GVNEOCP703
     ZT11861  C2018 10 05.29550 00 28 00.52 +16 00 58.4          19.8 GVNEOCPG96
     ZT11861  C2018 10 05.30113 00 28 03.95 +16 02 05.1          19.7 GVNEOCPG96
     ZT11861  C2018 10 05.30676 00 28 07.42 +16 03 11.7          19.7 GVNEOCPG96
     ZT11861  C2018 10 05.31238 00 28 10.95 +16 04 19.1          19.7 GVNEOCPG96
     ZT11861  C2018 10 05WYSmsbGcTJebp$uvocm-mZ2LCB`#HPMc[s\wtRE?:oD5kmR_Fs2LH01
     ZT11861  C2018 10 05.fsWG7Y(0Y_p1*5%S3oD'G][G1HtMV`G3WHJ6*5,ctOXlTeYI/`KH01
     ZT11861  C2018 10 05GBLXj_a`4r.8bl'IVUK+gq9RQc7h=3:OW;4XVuF(]^jP@9,u?k=6H01
     ZT11861  C2018 10 05*ogGeYi(F*W$yl6UA\7Xt'.:unjn_-*DVLEB_5J+s\cr(y'I['VyH01
     ZT11861  C2018 10 05.42742 00 29 41.43 +16 29 26.7          19.4 GVNEOCPI52
     ZT11861  C2018 10 05.42815 00 29 42.14 +16 29 37.2          19.4 GVNEOCPI52
     ZT11861  C2018 10 05.42888 00 29 42.87 +16 29 47.7          19.5 GVNEOCPI52
     ZT11861 KC2018 10 05jJt^:hx!MvXSuT80$C):aUB`\EvT',TqV(/KKaLx]^+Y8CCq@'e'A17
     ZT11861 KC2018 10 05\.BsSMZJ[+d;+5Xg:prMc;p45Qy=ha_a;#hO'J[-hv9#RKjlub?8A17
     ZT11861 KC2018 10 05WjLlAc/gJ(YmX`qmH_i;bAf,h;naT%QZqM`5\(7a0qTBWK5%0XtLA17
     ZT11861 KC2018 10 05T:XBV)d+5DVb_kxg)9QTmNer=E\v?.*Z@L6F/+xxb`]-9$6RVD*0A17
     ZT11861  C2018 10 05LGU/wt='T8SD^=xD;w,V4mI9^Uo(/S8\mkxBbYvgu9*s]yJC/_62246
     ZT11861  C2018 10 05RNhGWwTo3.=$,_A@5A-047*KjTHTm_fE3TFD,:?/1xop?5+:BO3$246
     ZT11861  C2018 10 05TIXHbDmOS:N9nh2#S0sIOb.D+JsJMvYP.'l-Nv`BJS78e:kvgn%P246
     ZT11861  C2018 10 05I5'vS+$*dT8E!Etw_pG8-9$^TCRYs.]b5Ypu7_F8_G83DQ)kjk^H246
     ZT11861  C2018 10 05mBjN[\rL,vGCv`iiyredacted;6[242Ya=$._x3J4CPtsQp7a9kR246
     ZT11861  C2018 10 05t#f`sF=ZcAh#HAj]:,ZD'Tuy$g`=Xlk[YQ/Yniv62y8SD068K]w%246
     ZT11861  C2018 10 05Xv)y7FW)kmBu7EL'W%sdI)UbEEC_WshW0hhnY5d!7`l7fMHkF3;O246
     ZT11861  C2018 10 05B#uHr-YEOjV=Y$Pnh+`(RQn%y:LfU!.2P0hHqGnFl$=%\GsJS3-+246
     ZT11861  C2018 10 05U0o\^J8G6hW$k)9OrqGwSnJW!8d,V@qN5-g:E4*4E/%NirXaiY8B246
     ZT11861  C2018 10 05MbS)518`_MnLA9:L'`5`h$X?GYWCa?wjtoY+-@D4hqV'e\/KqI:O246
     ZT11861  C2018 10 05(nn)NKM5D$Ys8#2:MJ(8`kdWnX`vLTTY-C$ev^;'2(O]dACU+U#=246
     ZT11861 KC2018 10 05oDJZx)ABa,x^D98bAnt#w1g/vJyA3Se]3A.:(:8@^,X'Lu*I`qhoK88
     ZT11861 KC2018 10 05Gl3F3!S^gKYve6W\Oc;ODg$N7?yY4FKG8#GE;4pOd5kUmM*0h3U0K88
     ZT11861 KC2018 10 05l]!1]Zy]+!*wX+CNtm#^)n9PAw:d1ot#-u4D/3'nifk!K4OE\R*eK88
     ZT11861 KC2018 10 05Fw;BuU,,%Zcf/Q0k2a1Wc]F8((kfGkd3_KsEPSb941rs)X\@$tI`113
     ZT11861 KC2018 10 05?i-1SIxltrk%%SuvF0XN1Q1i3RGaUa[DnFRqDxkpDJPQFLx\V*ma113
     ZT11861 KC2018 10 05;6NG7ixJ!lpS=o+ceO3;'3A%i$5sKPibseeXjyGGRLHxBUk`%Wjl113
     ZT11861 KC2018 10 05LqnPIL?wwI@9'0mNWE%wwZ9huryee6ENfn_kQ.1E5v8=S7r34om(113
     ZT11861 KC2018 10 057Bk-eqCdEcYyH$PVjuEfgcsX[,G*TOuv)f^I7[36yl5GKfX;;W[]113
     ZT11861 KC2018 10 05@T;U;b9ok5EuU]xm?1]rXs?)9QxTc3k]A-9\I,+ouQDQ4Bx-S[%1113
     ZT11861 KC2018 10 05.ynG*FVmYGQ!.D7XPC'LtKWbGUJTjOfy(43[VZ:$1o2U-D`PK2$P113
     ZT11861 KC2018 10 05ifwx6RB@ruH`v5ARp60'+C78AwhmcFw,3O^#[wSV9R55*_K;AV82A17
     ZT11861 KC2018 10 05IYckL8$2%Sp\hPZA,448##CcN8*_Pbc%Sj+kH=JUg-CqAXU,JX0GA17
     ZT11861 KC2018 10 05A8_%Qiu9-Tmw_8yVcTwpQI7o[l!+$eSF$8%/\!IiU@oT?%qM#g$XA17
     ZT11861 KC2018 10 05MaJ(l)HEOL8.5N/^=?T74c09Z]pH;vZB]_J*hr)=xAK4I5L@T'WBZ80
     ZT11861 KC2018 10 05jg[J$,L?(-a@lfJZ8SQkOV%xE+?y2PuV1'B=-y:#?`Cit\wKML\,Z80
     ZT11861 KC2018 10 05.93968201 04 40.73 +22 16 11.7          16.4 GVNEOCPJ95
     ZT11861 KC2018 10 05.94091501 04 53.44 +22 18 28.3          17.4 GVNEOCPJ95
     ZT11861 KC2018 10 05J'7C[$tVZlg;4^IP^=.#XQGRgDX:p:tulVplgP^.FLmo#QfeTD!wZ80
     ZT11861 KC2018 10 05*y/xo#yjxkb/;.vEl*kw`u(M`7qWlHalW9aZl+37GBRUrx!i@T*oZ80
     ZT11861 KC2018 10 05.95003101 06 31.05 +22 35 47.9          17.4 GVNEOCPJ95
     ZT11861 KC2018 10 05.95123201 06 44.33 +22 38 09.2          17.5 GVNEOCPJ95
     ZT11861 KC2018 10 0561VM\3@+NfgMQ43dKZ`$jXk4EeBO[Y:k`wXZ(,FxMNOaam3u-k?eZ80
     ZT11861 KC2018 10 05G1TlPPvec6VJ34^ot+H3Q=NE*IRuirBTi*Vep@UDio(8Cg`NEOCPZ80

Station data:
(113) Drebach  (N50.676689 E13.016600)  Germany.
   0.18-m f/9.0 refractor.
(246) Klet Observatory-KLENOT  (N48.863293 E14.288100)  Czech Republic.
   1.06-m KLENOT telescope.
(703) Catalina Sky Survey  (N32.417006 W110.732640)  US/Arizona.  Observers
   B. M. Africano, E. J. Christensen, D. C. Fuls, A. R. Gibbs, A. D. Grauer,
   J. A. Johnson, R. A. Kowalski, S. M. Larson, G. J. Leonard, R. L. Seaman,
   F. C. Shelly. 0.68 m Schmidt + 10K CCD.
(A17) Guidestar Observatory, Weinheim  (N49.545393 E8.681520)  Germany.
(F52) Pan-STARRS 2, Haleakala  (N20.707384 W156.255910)  US/Hawaii.
(G96) Mt. Lemmon Survey  (N32.442754 W110.788720)  US/Arizona.  Observers B.
   M. Africano, E. J. Christensen, D. C. Fuls, A. R. Gibbs, A. D. Grauer, J.
   A. Johnson, R. A. Kowalski, S. M. Larson, G. J. Leonard, R. L. Seaman, F.
   C. Shelly. 1.5-m reflector + 10K CCD.
(H01) Magdalena Ridge Observatory, Socorro  (N33.984833 W107.189333)  US/New
   Mexico.  Observers W. H. Ryan, E. V. Ryan. Measurer W. H. Ryan. 2.4-m
   f/8.9 reflector + CCD.
(I52) Steward Observatory, Mt. Lemmon Station  (N32.442547 W110.788920)
   US/Arizona.  Observers B. M. Africano, E. J. Christensen, D. C. Fuls, A.
   R. Gibbs, A. D. Grauer, J. A. Johnson, R. A. Kowalski, S. M. Larson, G. J.
   Leonard, R. L. Seaman, F. C. Shelly. 1.0-m reflector + CCD.
(J95) Great Shefford  (N51.474969 W1.447003)  UK.  Observer P. Birtwhistle.
   0.40-m f/6.0 Schmidt-Cassegrain + CCD.
(K88) GINOP-KHK, Piszkéstető  (N47.917622 E19.893600)  Hungary.  Observer K.
   Sárneczky. 0.60-m Schmidt + CCD.
(Z80) Northolt Branch Observatory  (N51.554661 W0.371920)  UK.

Orbital elements:  ZT11861
   Perihelion 2018 Nov 25.574370 +/- 0.00249 TT = 13:47:05 (JD 2458448.074370)
Epoch 2018 Oct  5.0 TT = JDT 2458396.5   Earth MOID: 0.0002   Ve: 0.0449
M 333.43669 +/- 0.006               Ma: 0.0490                AutoNEOCP
n   0.51504864 +/- 9.15e-5          Peri.  260.24306 +/- 0.00033
a   1.54135928 +/- 0.000183         Node   192.81452 +/- 0.000015
e   0.5408967 +/- 6.95e-5           Incl.    5.10424 +/- 0.0006
P   1.91/698.95d           H 29.6   G  0.15   U  6.5  
q 0.70764301 +/- 2.34e-5    Q 2.37507555 +/- 0.000389
From 53 observations 2018 Oct. 4-5 (34.7 hr); mean residual 0".47
Residuals in arcseconds: 
181004 F52  .45+  .20+    181005 A17  .09+  .44+    181005 113  1.3+  .84+    
181005 703  .31-  .61+    181005 246  .94+  .83+    181005 113  .14-  1.1+    
181005 703  .03-  .47-    181005 246  .41-  .51+    181005 113  1.2+  .66+    
181005 703  .14+  .32-    181005 246  .36-  .34-    181005 113  .16+  .95+    
181005 G96  .10+  .10-    181005 246  .10+  .02-    181005 A17  .03-  .03-    
181005 G96  .07+  .08+    181005 246  .01-  .40+    181005 A17  .22+  .26+    
181005 G96  .08-  .33-    181005 246  .19-  .80-    181005 A17  .23-  .27+    
181005 G96  .03-  .30-    181005 246  .39+  .90-    181005 Z80  .56-  .34-    
181005 H01  .14-  .11-    181005 246  .36+  .33-    181005 Z80  .79-  .05+    
181005 H01  .01-  .08-    181005 246  .24-  .47-    181005 J95  .10+  .32-    
181005 H01  .06+  .02-    181005 246  .16+  .69+    181005 J95  .17-  .03+    
181005 H01  .12-  .17-    181005 246  .46+  .07-    181005 Z80  .06+  .89+    
181005 I52  .02-  .01-    181005 K88  .29+  .14-    181005 Z80  .10-  .29-    
181005 I52  .30-  .02-    181005 K88  .78-  .56-    181005 J95  .27+  .12-    
181005 I52  .33-  .05-    181005 K88  .43-  .64+    181005 J95  .43-  .21-    
181005 A17  .14+  .30-    181005 113  1.0+  1.2+    181005 Z80  .26+  .44+    
181005 A17  .03-  .32-    181005 113  1.0+  .65+    181005 Z80  .62+  .80+    
181005 A17  .07-  .31+    181005 113  .20+  .64+    

Ephemerides (geocentric):
Date (UTC) HH   RA              Dec         delta   r     elong  mag " sig PA
---- -- -- --  -------------   -----------  ------ ------ -----  --- ---- ---
2018 10 15 01  12 17 36.457   -13 46 54.35  .07709 .92345  16.0 35??  2.8 130
2018 10 15 02  12 17 37.263   -13 46 57.47  .07746 .92309  16.0 35??  2.8 130
2018 10 15 03  12 17 38.068   -13 47 00.52  .07783 .92274  16.1 35??  2.8 130
2018 10 15 04  12 17 38.871   -13 47 03.51  .07820 .92238  16.1 35??  2.8 130
2018 10 15 05  12 17 39.672   -13 47 06.43  .07857 .92203  16.1 35??  2.8 130
2018 10 15 06  12 17 40.472   -13 47 09.30  .07894 .92168  16.1 35??  2.8 130
2018 10 15 07  12 17 41.271   -13 47 12.11  .07931 .92132  16.2 35??  2.8 130
2018 10 15 08  12 17 42.068   -13 47 14.86  .07968 .92097  16.2 35??  2.8 130
2018 10 15 09  12 17 42.864   -13 47 17.55  .08005 .92062  16.2 35??  2.8 130
2018 10 15 10  12 17 43.659   -13 47 20.18  .08042 .92027  16.3 35??  2.8 130
2018 10 15 11  12 17 44.453   -13 47 22.75  .08079 .91991  16.3 35??  2.8 130
2018 10 15 12  12 17 45.246   -13 47 25.27  .08116 .91956  16.3 35??  2.8 130
2018 10 15 13  12 17 46.038   -13 47 27.74  .08153 .91921  16.3 35??  2.8 130
2018 10 15 14  12 17 46.828   -13 47 30.14  .08190 .91885  16.4 35??  2.8 130
2018 10 15 15  12 17 47.618   -13 47 32.50  .08227 .91850  16.4 35??  2.8 130
2018 10 15 16  12 17 48.407   -13 47 34.80  .08264 .91815  16.4 35??  2.8 130
2018 10 15 17  12 17 49.196   -13 47 37.05  .08301 .91780  16.5 35??  2.8 130
2018 10 15 18  12 17 49.983   -13 47 39.25  .08338 .91744  16.5 35??  2.8 130
2018 10 15 19  12 17 50.770   -13 47 41.39  .08375 .91709  16.5 35??  2.8 130
2018 10 15 20  12 17 51.557   -13 47 43.48  .08412 .91674  16.5 35??  2.8 130
2018 10 15 21  12 17 52.342   -13 47 45.53  .08449 .91639  16.6 35??  2.8 130
